Location: Heiligenberg
(48.5381°N, 7.3897°E)
Time: 23:54:03
(UTC+00:00)

ATLAS CENTAUR R/B - Pass Details

Date: 26 May 2022
Orbit: 443 x 688 km, 64.6° (Epoch: 07 June)

Event Time Altitude Azimuth Distance (km) Brightness Sun altitude
Rises 00:07:53 0° 311° (NW) 3,052 5.5 -19.8°
Reaches altitude 10° 00:10:45 10° 295° (WNW) 2,113 4.5 -19.7°
Enters shadow 00:14:00 20° 253° (WSW) 1,502 3.2 -19.6°
